Location: México DF
(19.4326°N, 99.1332°W)
Time: 02:48:17
(UTC+00:00)

ISS - Pass Details

Date: 10 May 2026
Orbit: 414 x 424 km, 51.6° (Epoch: 15 May)

Event Time Altitude Azimuth Distance (km) Brightness Sun altitude
Rises 11:35:27 0° 297° (WNW) 2,355 -0.3 -7.0°
Reaches altitude 10° 11:38:11 10° 273° (W) 1,493 -1.5 -6.4°
Maximum altitude 11:40:12 15° 236° (SW) 1,219 -2.0 -6.0°
Drops below altitude 10° 11:42:14 10° 198° (SSW) 1,493 -1.3 -5.5°
Sets 11:44:58 0° 174° (S) 2,357 -0.1 -4.9°
